Welcome to the New NWS' Forecast!
Most changes are behind the scenes, but click here for differences you might notice.
Latest weather observations around

Mount Shasta (KMHS)

Using English Units (Switch to International System of Units)
Date/ Time (PST) Wind (mph) Vis. (mi) Weather Sky Cond. Temp (°F) Rel. Humidity Wind Chill (°F) Heat Index (°F) Pressure Precip. (in)
Air Dwpt 6 hour Altimeter (inHg) Sea level (inHg) 1 hr 3 hr 6 hr
Max Min
Nov 22 01:56 Calm 10 Clear CLR 47 46     97%     30.24 30.26      
Nov 22 00:56 Calm 10 Clear CLR 47 46     97%     30.22 30.25      
Nov 21 23:56 Calm 7 Clear CLR 47 46     97%     30.23 30.26      
Nov 21 22:56 Calm 10 Mostly Clear FEW120 50 48     93%     30.24 30.27      
Nov 21 21:56 Calm 10 Mostly Clear FEW110 50 49     96%     30.24 30.28      
Nov 21 20:56 Calm 10 Mostly Cloudy BKN065 BKN120 50 49     96%     30.22 30.27      
Nov 21 19:56 Calm 10 Mostly Cloudy BKN110 54 49     83%     30.22 30.26      
Nov 21 18:56 Calm 10 Partly Cloudy SCT120 53 50     89%     30.2 30.24      
Nov 21 17:56 Calm 10 Cloudy BKN085 OVC120 54 49     83%     30.2 30.23      
Nov 21 16:56 Calm 10 Partly Cloudy SCT120 54 50     86%     30.18 30.22      
Nov 21 15:56 ESE 3 10 Cloudy OVC080 58 47     67%     30.18 30.21     0
Nov 21 14:56 Calm 10 Cloudy SCT080 OVC100 59 49     69%       30.2      
Nov 21 13:56 Calm 10 Partly Cloudy SCT070 SCT090 59 51     75%       30.22      
Nov 21 12:56 5 10 Partly Cloudy SCT075 59 51     75%       30.23   0  
Nov 21 11:56 Calm 10 Mostly Cloudy SCT024 BKN075 58 52     81%       30.24      
Nov 21 10:56 Calm 10 Mostly Cloudy BKN021 53 51     93%       30.28 0    
Nov 21 09:56 Calm 10 Cloudy OVC020 48 48     100%     30.25 30.3 0   0
Nov 21 08:56 Calm 10 Cloudy FEW002 OVC021 46 46     100%     30.24 30.3 0    
Nov 21 07:56 Calm 5 Light Rain and Fog/Mist FEW003 OVC020 46 46     100%     30.25 30.31 0    
Nov 21 07:15 Calm 9 Light Rain SCT002 OVC021 45 45     100%     30.24   0    
Nov 21 06:56 Calm 5 Light Rain and Fog/Mist OVC002 45 45     100%     30.24 30.3 0 0  
Nov 21 06:52 Calm 4 Light Rain and Fog/Mist OVC002 45 45     100%     30.24   0    
Nov 21 06:45 Calm 2.5 Fog/Mist OVC002 45 45     100%     30.24   0    
Nov 21 06:38 Calm 1.75 Fog/Mist OVC002 44 44     100%     30.23   0    
Nov 21 06:28 Calm 2 Fog/Mist OVC002 44 44     100%     30.23   0    
Nov 21 06:23 Calm 1.25 Light Rain and Fog/Mist OVC002 44 44     100%     30.23   0    
Nov 21 06:15 Calm 1.75 Light Rain and Fog/Mist OVC002 44 44     100%     30.23   0    
Nov 21 05:49 Calm 6 Light Rain and Fog/Mist SCT003 BKN025 OVC034 45 45     100%     30.24   0    
Nov 21 04:56 SE 3 9 Cloudy BKN002 OVC016 45 44     97% 44   30.22 30.28      
Nov 21 04:38 Calm 3 Fog/Mist BKN002 BKN015 OVC023 44 44     100%     30.22        
Nov 21 04:35 Calm 1.5 Fog/Mist BKN002 BKN013 OVC023 44 44     100%     30.22        
Nov 21 04:29 Calm 0.75 Fog/Mist BKN002 BKN013 OVC080 44 44     100%     30.22        
Nov 21 04:22 Calm 0.75 Fog/Mist SCT003 BKN011 OVC080 44 44     100%     30.21        
Nov 21 04:13 Calm 1.25 Fog/Mist FEW005 BKN022 OVC085 44 44     100%     30.22        
Nov 21 04:09 Calm 1.75 Fog/Mist BKN011 BKN022 OVC085 44 44     100%     30.22        
Nov 21 03:56 Calm 9 Cloudy BKN011 OVC085 45 45     100%     30.22 30.29      
Nov 21 03:25 Calm 10 Cloudy OVC014 47 46     97%     30.22        
Nov 21 03:05 ESE 3 10 Cloudy FEW004 SCT010 OVC016 46 46     100% 45   30.23        
Nov 21 02:56 3 8 Cloudy SCT006 BKN010 OVC016 45 45     100% 44   30.23 30.29      
Nov 21 02:52 Calm 3 Fog/Mist BKN008 OVC016 45 45     100%     30.23        
Nov 21 02:49 Calm 1.5 Fog/Mist BKN008 OVC014 44 44     100%     30.23        
Nov 21 02:31 Calm 0.75 Fog/Mist VV009 43 43     100%     30.22        
Nov 21 02:25 Calm 1 Fog/Mist VV010 43 43     100%     30.22        
Nov 21 02:09 Calm 0.5 Fog BKN006 OVC016 44 44     100%     30.22        
Nov 21 01:56 Calm 0.75 Fog/Mist BKN002 OVC018 44 44     100%     30.22 30.28      
Nov 21 01:43 Calm 0.75 Fog/Mist SCT002 OVC019 43 43     100%     30.21        
Nov 21 00:56 SSW 3 0.5 Fog VV002 43 43     100% 41   30.21 30.27      
Nov 21 00:47 Calm 0.5 Fog VV002 43 43     100%     30.21        
Nov 21 00:39 Calm 0.25 Fog VV003 43 43     100%     30.22        
Nov 21 00:24 Calm 0.5 Fog VV003 43 43     100%     30.2        
Nov 21 00:05 Calm 1.25 Fog/Mist OVC003 43 43     100%     30.21        
Nov 20 23:56 Calm 0.75 Fog/Mist VV002 43 43     100%     30.2 30.27      
Nov 20 23:29 Calm 0.75 Fog/Mist VV002 43 43     100%     30.2        
Nov 20 23:24 3 1.75 Fog/Mist OVC003 43 43     100% 41   30.2        
Nov 20 23:18 Calm 6 Fog/Mist BKN003 OVC011 43 43     100%     30.2        
Nov 20 23:10 SW 3 2 Fog/Mist BKN004 OVC011 43 43     100% 41   30.19        
Nov 20 23:04 Calm 1.25 Fog/Mist BKN004 OVC011 43 43     100%     30.19        
Nov 20 23:00 Calm 2 Fog/Mist BKN004 OVC011 43 43     100%     30.19        
Nov 20 22:56 Calm 4 Fog/Mist SCT006 OVC011 43 43     100%     30.19 30.25      
Nov 20 22:27 Calm 8 Cloudy FEW001 BKN013 OVC019 43 43     100%     30.19        
Nov 20 21:56 Calm 9 Cloudy FEW002 OVC017 43 43     100%     30.18 30.24     0
Nov 20 20:56 Calm 10 Cloudy FEW002 OVC023 43 43     100%     30.16 30.23 0    
Nov 20 20:03 Calm 3 Light Rain and Fog/Mist FEW001 BKN026 OVC048 42 42     100%     30.16   0    
Nov 20 19:56 Calm 5 Light Rain and Fog/Mist FEW001 BKN032 OVC055 42 42     100%     30.16 30.23 0    
Nov 20 19:46 Calm 5 Light Rain and Fog/Mist FEW026 BKN045 OVC055 42 42     100%     30.15   0    
Nov 20 19:26 Calm 5 Light Rain and Fog/Mist SCT002 BKN025 OVC055 42 42     100%     30.15   0    
Nov 20 18:56 Calm 6 Light Rain and Fog/Mist BKN002 BKN035 OVC050 42 42     100%     30.14 30.2 0 0  
Nov 20 17:56 Calm 8 Light Rain BKN002 BKN026 OVC041 42 41     96%     30.13 30.19 0    
Nov 20 17:52 Calm 8 Light Rain BKN002 BKN026 OVC041 43 41     93%     30.13   0    
Nov 20 17:36 Calm 10 Cloudy SCT002 OVC025 42 41     96%     30.12        
Nov 20 16:56 Calm 10 Cloudy OVC028 44 41     89%     30.11 30.17 0    
Nov 20 15:56 ESE 5 10 Light Rain BKN025 BKN039 OVC055 43 41     93% 40   30.09 30.16 0   0
Nov 20 15:47 ESE 5 10 Light Rain SCT027 BKN039 OVC050 43 41     93% 40   30.09   0    
Nov 20 15:33 ESE 5 10 Light Rain BKN027 OVC034 43 41     93% 40   30.1   0    
Nov 20 14:56 ESE 5 6 Light Rain and Fog/Mist FEW022 OVC033 43 41     93% 40   30.09 30.16 0    
Nov 20 14:49 ESE 5 8 Light Rain SCT022 OVC033 43 41     93% 40   30.09   0    
Nov 20 13:56 3 10 Cloudy OVC023 45 41     86% 44   30.08 30.14 0    
Nov 20 12:56 E 5 10 Light Rain OVC017 44 41     89% 41   30.09 30.15 0 0  
Nov 20 11:56 E 7 9 Cloudy FEW012 OVC022 43 40     89% 39   30.09 30.15      
Nov 20 10:56 E 9 6 Fog/Mist OVC018 43 40     89% 38   30.08 30.14      
Nov 20 09:56 ESE 5 10 Cloudy OVC022 42 39     89% 39   30.06 30.12     0
Nov 20 08:56 E 10 10 Cloudy OVC022 41 38     89% 35   30.06 30.11 0    
Nov 20 07:56 ESE 6 10 Cloudy SCT014 OVC021 41 38     89% 37   30.04 30.1 0    
Nov 20 06:56 E 14 10 Light Rain FEW017 BKN025 OVC029 41 37     86% 33   30.03 30.09 0 0  
Nov 20 05:56 E 8 8 Light Rain BKN025 OVC046 40 37     89% 34   30.02 30.08 0    
Nov 20 05:09 ESE 6 5 Rain and Fog/Mist SCT028 OVC060 40 37     89% 36   30   0    
Nov 20 04:56 ESE 5 8 Rain BKN028 OVC055 40 37     89% 37   30.02 30.08 0    
Nov 20 03:56 ESE 6 10 Light Rain OVC027 41 37     86% 37   30.02 30.07 0   0
Nov 20 03:22 ESE 5 10 Light Rain BKN027 OVC035 40 36     86% 37   30.03   0    
Nov 20 02:56 ESE 3 8 Light Rain OVC034 40 36     86% 38   30.03 30.09 0    
Nov 20 01:56 ESE 6 10 Light Rain OVC035 42 35     76% 38   30.04 30.09 0    
Nov 20 00:56 SE 5 10 Cloudy OVC043 42 34     73% 39   30.04 30.1 0 0  
Nov 19 23:56 3 10 Cloudy BKN047 OVC055 44 32     62% 43   30.04 30.09      
Nov 19 22:56 SE 5 10 Cloudy BKN060 OVC085 44 32     62% 41   30.04 30.09      
Nov 19 21:56 5 10 Cloudy BKN060 OVC080 44 32     62% 41   30.04 30.1      
Nov 19 20:56 E 11 10 Cloudy FEW070 OVC080 45 32     60% 39   30.04 30.11      
Nov 19 19:56 E 6 10 Cloudy OVC090 45 31     58% 42   30.03 30.11      
Nov 19 18:56 ESE 6 10 Mostly Clear FEW100 46 31     55% 43   30.03 30.12      
Nov 19 17:56 6 10 Mostly Clear FEW110 46 31     55% 43   30.04 30.13      
Nov 19 16:56 E 8 10 Mostly Clear FEW110 46 32     58% 42   30.04 30.14      
Nov 19 15:56 ESE 7 10 Clear CLR 47 32     56% 44   30.05 30.13      
Nov 19 14:56 SE 5 10 Clear CLR 46 34     63% 44   30.05 30.14      
Nov 19 13:56 SE 3 10 Clear CLR 47 34     60% 46   30.06 30.14      
Nov 19 12:56 Calm 10 Clear CLR 48 34     58%     30.08 30.16      
Nov 19 11:56 SE 6 10 Clear CLR 49 33     54% 46   30.11 30.19      
Nov 19 10:56 E 5 10 Clear CLR 48 35     61% 46   30.12 30.2      
Nov 19 09:56 Calm 10 Clear CLR 41 34     76%     30.14 30.23      
Nov 19 08:56 Calm 10 Clear CLR 34 30     85%     30.13 30.24      
Nov 19 07:56 Calm 9 Clear CLR 28 26     92%     30.13 30.26      
Nov 19 06:56 Calm 9 Clear CLR 27 24     89%     30.13 30.25      
Nov 19 05:56 Calm 8 Clear CLR 26 23     88%     30.14 30.26      
Nov 19 04:56 Calm 8 Clear CLR 26 23     88%     30.13 30.24      
Nov 19 03:56 Calm 7 Clear CLR 26 23     88%     30.15 30.23      
Nov 19 02:56 Calm 5 Fog/Mist CLR 26 23     88%     30.16 30.25      
Nov 19 01:56 Calm 4 Fog/Mist CLR 26 23     88%     30.16 30.24      
Jun 11 19:56 N 11 10 Cloudy FEW024 BKN038 OVC075 44 39     82% 38   29.93 30 0 0  
Jun 11 18:56 N 8 9 Light Rain BKN037 OVC048 44 40     85% 40   29.93 29.99 0    
Jun 11 12:56 3 5 Light Rain and Fog/Mist BKN023 OVC030 40 37     89% 38   29.93 30 0    
Jun 11 05:25 NW 3 9 Light Rain BKN008 OVC015 38 35     89% 36   29.9   0    
Jun 10 15:56 Calm 10 Light Rain FEW043 OVC060 55 41     59%     29.85 29.89 0    
Jun 10 14:56 3 10 Light Rain FEW021 BKN060 OVC075 57 41     55%     29.85 29.89 0    
Jun 09 00:56 Calm 10 Clear   45 43     93%     29.97 30.01      
Jun 08 08:17 3 6 Light Rain and Fog/Mist FEW027 BKN039 OVC055 46 44     93% 45   29.93   0    
Notice The following observation data may not be complete
Jun 08 04:07   4 Rain and Fog/Mist FEW007 BKN023 OVC037          %         0    
Jun 07 18:56 3 10 Clear CLR 67 40     37%     29.84 29.82      
Jun 07 16:56 Calm 10 Clear CLR 69 42     38%     29.87 29.86      
Jun 07 06:56 Calm 10 Clear CLR 56 47     72%     29.92 29.89      
Notice The following observation data may not be complete
Jun 07 05:56 Calm 10 Clear CLR   45      %     29.92 29.9      
Jun 06 11:56 Calm 10 Clear CLR 79 46     31%   78 29.98 29.95